Temp
16 16 16 16 16 16 16 17 17 17 17 17 17 17 17 18 19 19 21 19 18 17 17 19 20 19 19 20 20 20 21 22 21 20 21 22 21 22 23 22 22 22 22 23 22
16 16 16 16 16 16 17 17 17 17 17 17 17 17 17 17 17 20 20 18 18 17 18 19 21 20 22 21 20 20 20 21 21 21 20 21 21 21 21 21 21 22 23 22 22
16 16 16 16 17 17 17 17 17 17 17 17 17 17 17 17 20 22 19 18 17 17 18 18 19 20 21 21 21 21 20 21 21 21 20 20 20 21 20 20 21 21 22 22 23
16 17 17 17 17 18 18 18 18 17 17 17 17 17 17 17 22 21 19 18 18 17 18 19 21 21 21 21 21 18 21 20 20 20 19 19 20 20 20 20 21 21 22 22 22
17 17 17 17 17 18 18 18 18 17 17 17 17 17 16 21 23 19 19 18 17 17 19 20 21 20 21 21 21 21 21 20 20 20 20 20 19 20 19 21 21 21 21 21 21
17 17 17 17 18 18 18 18 18 18 18 17 17 17 18 22 20 19 18 18 18 18 20 20 20 20 19 20 19 20 19 20 21 20 20 19 19 20 20 21 20 20 20 21 21
16 17 17 18 18 18 18 18 19 17 18 18 17 16 19 22 19 19 18 18 17 18 19 19 18 19 20 20 20 19 18 22 21 20 19 19 19 18 19 20 20 21 21 20 19
16 16 17 17 18 18 19 19 18 17 17 17 16 16 22 19 19 19 19 18 17 17 17 17 17 18 18 20 20 20 20 20 21 19 19 19 18 18 18 18 19 19 18 17 16
16 16 17 17 18 18 19 18 17 16 17 16 16 18 22 19 20 18 18 19 18 17 17 17 17 19 20 21 22 21 19 20 20 19 20 19 17 16 16 16 15 15 16 16 16
16 17 17 18 18 18 19 16 17 16 15 15 16 19 21 21 18 17 18 17 19 18 18 19 19 20 21 20 18 17 18 19 19 18 19 18 16 15 14 12 12 12 13 15 14
16 17 17 18 18 18 18 16 20 20 20 18 18 19 20 19 17 19 18 18 19 20 20 20 20 19 19 19 18 18 18 20 19 19 19 17 16 16 15 12 9 10 9 10 12
16 17 17 17 17 18 16 17 13 12 17 17 17 18 18 17 20 20 19 20 21 20 20 20 20 19 18 18 19 19 19 19 19 19 20 19 18 17 15 12 8 6 8 8 9
16 16 17 18 17 15 13 12 10 11 17 20 19 19 19 18 20 20 19 19 20 21 20 20 19 18 19 20 18 19 17 17 17 18 19 19 19 18 17 13 11 9 8 8 8
16 16 17 18 17 13 13 10 10 11 20 20 20 19 19 19 19 18 18 18 21 20 20 19 19 18 20 19 17 18 17 16 18 19 19 20 19 17 16 14 12 11 9 8 8
15 16 16 16 14 16 12 11 10 12 19 20 20 18 19 19 19 19 17 19 19 19 20 19 18 17 19 17 17 18 15 17 18 20 20 19 18 17 16 13 12 12 11 9 10
15 15 15 14 14 12 12 11 12 19 17 19 20 19 21 20 20 20 19 19 18 19 19 18 17 17 17 17 17 18 17 18 19 19 18 17 18 16 14 12 12 12 11 11 11
15 15 15 14 15 14 11 14 19 20 20 20 19 19 19 19 20 19 19 19 19 17 19 20 19 18 17 18 18 18 19 18 18 18 17 17 17 14 13 12 12 11 11 11 11
14 15 14 13 13 13 13 20 18 19 19 18 18 19 19 18 19 19 19 20 18 18 18 17 17 18 17 16 15 17 16 17 17 18 19 18 17 14 13 13 12 11 11 10 10
14 13 13 13 14 13 18 20 20 19 18 18 20 19 20 19 18 19 19 19 17 17 17 17 18 17 16 16 16 17 16 15 16 17 17 18 16 15 14 12 11 11 10 10 9
13 14 15 14 14 13 19 18 19 17 17 17 18 19 19 20 19 19 19 17 17 17 17 18 16 17 17 16 16 17 16 16 17 16 17 18 17 17 12 11 11 10 9 9 9
13 16 14 14 13 18 19 19 18 17 16 17 18 18 19 18 18 19 19 17 17 17 17 16 16 17 16 17 17 17 17 16 16 16 17 18 18 13 11 10 10 10 9 9 8
12 15 13 14 17 17 19 18 13 16 16 16 16 17 18 18 18 18 18 18 17 17 17 16 16 15 17 16 15 16 16 16 16 17 16 16 16 12 11 10 10 10 9 8 8
11 13 12 13 17 18 17 16 15 16 16 16 16 16 17 17 17 17 17 16 16 16 16 16 16 15 16 15 15 15 16 16 16 15 15 16 16 12 11 10 9 9 8 8 7
12 14 14 14 12 15 17 17 16 14 15 16 16 15 16 16 17 16 16 15 14 15 12 14 15 15 16 17 16 15 16 15 15 14 16 16 16 11 10 10 9 8 7 7 6
10 12 14 17 17 15 14 15 16 16 14 15 15 15 16 16 15 15 16 16 14 13 13 14 14 14 15 15 15 15 15 15 14 14 14 16 15 14 11 8 7 6 6 6 5
9 11 11 12 12 11 12 15 16 16 16 15 15 17 16 15 16 16 15 15 15 14 14 13 13 13 11 14 14 13 14 14 14 14 14 14 15 10 8 8 6 5 4 4 4
9 9 13 12 12 13 12 13 15 15 16 16 15 15 14 15 15 14 14 15 14 13 13 13 13 13 13 13 13 13 13 14 13 10 12 13 9 8 7 6 5 4 3 3 3
Height
844 843 840 839 837 835 834 831 829 828 826 824 822 820 817 814 813 812 809 811 810 808 806 804 800 800 799 796 798 797 791 784 786 789 783 777 779 774 773 774 770 769 767 767 766
846 844 842 840 837 835 833 830 829 827 825 823 821 819 817 815 814 812 812 810 809 808 808 805 801 800 794 795 796 796 792 785 784 784 784 780 780 776 775 771 769 766 764 765 766
847 845 843 840 837 835 832 829 827 825 824 821 820 818 817 815 815 809 811 811 810 809 809 807 805 801 796 795 793 790 794 785 784 781 783 783 779 772 772 770 764 765 761 761 757
848 846 843 840 837 834 831 827 825 824 822 820 819 818 817 818 816 810 811 811 810 809 809 807 801 798 797 794 789 800 786 786 785 783 784 782 775 774 770 764 760 758 758 760 758
848 846 843 840 836 832 829 826 823 821 818 816 817 817 817 814 808 810 810 810 810 810 809 806 801 800 798 794 791 786 785 784 782 781 780 776 776 769 769 761 758 758 758 757 756
849 846 843 839 835 831 827 823 820 817 814 813 814 816 817 813 811 811 811 811 810 809 807 807 804 803 801 796 796 789 789 783 777 780 776 779 772 768 765 759 759 757 754 753 752
849 846 842 838 833 829 825 820 816 813 812 811 813 815 815 810 811 811 810 810 809 809 807 807 807 805 800 796 791 792 791 772 774 778 777 778 772 776 768 760 757 751 746 749 751
849 845 841 837 832 827 822 818 814 813 812 812 814 816 807 809 810 810 810 809 809 808 809 808 808 805 803 795 787 788 782 780 775 780 780 778 780 775 775 767 758 754 754 760 760
849 845 841 836 831 826 821 816 814 814 813 813 815 815 807 811 811 811 810 809 808 808 808 808 808 804 796 791 780 781 790 785 781 782 777 776 783 785 783 776 775 769 762 761 758
849 846 842 836 830 826 820 816 815 815 815 814 815 817 811 812 813 811 811 810 808 808 807 806 804 800 794 797 807 804 796 787 788 790 779 784 790 792 791 791 787 782 771 764 763
850 846 841 836 831 826 820 819 818 816 815 818 818 816 813 814 812 811 811 810 808 804 805 804 804 809 807 805 805 802 797 786 789 787 785 788 790 791 796 800 800 790 783 777 769
849 845 841 836 832 829 826 828 838 839 825 819 818 818 817 816 812 810 811 809 805 805 802 805 807 807 806 806 800 796 792 790 790 787 780 780 784 787 795 805 812 804 790 781 768
850 846 841 836 833 831 833 838 838 838 827 817 816 816 816 817 813 811 811 810 807 802 806 804 810 807 804 799 803 795 802 799 798 789 784 780 778 784 788 803 803 802 794 779 770
851 847 842 838 837 835 836 836 836 837 819 820 816 817 816 816 815 814 813 814 804 808 807 808 807 809 800 801 806 797 803 801 795 785 787 772 779 788 794 801 802 801 799 793 787
851 848 844 839 840 838 840 836 835 837 833 819 816 816 814 816 817 814 815 810 812 810 809 811 812 811 805 809 806 803 807 801 794 782 779 782 782 794 795 804 807 804 803 804 799
851 848 844 842 841 840 837 835 836 829 843 824 819 819 813 813 815 813 812 813 813 812 809 812 815 814 813 809 806 797 801 794 790 785 793 795 792 795 810 815 820 817 812 807 809
852 848 844 842 841 837 835 835 830 830 823 829 828 822 822 819 816 818 819 817 818 823 815 805 811 811 815 806 801 799 795 802 801 797 797 795 794 812 818 819 819 823 821 819 818
851 847 845 844 841 838 836 826 839 830 829 829 829 823 822 823 820 818 816 815 819 819 817 823 824 815 815 818 821 812 810 810 809 798 788 791 797 814 823 827 827 825 827 825 820
849 846 844 842 840 839 834 834 831 830 835 833 822 824 819 822 825 817 818 819 824 824 827 823 816 815 818 818 818 809 814 818 812 803 801 792 804 813 818 824 829 830 831 830 829
850 847 843 842 839 839 833 837 832 836 836 836 833 828 825 818 822 817 817 823 826 827 825 823 827 814 816 820 818 815 817 814 808 810 801 788 794 794 821 828 830 834 836 833 836
851 846 844 842 841 835 834 832 835 836 837 835 830 830 824 828 827 821 818 826 825 826 825 825 827 816 818 815 814 814 812 813 815 812 803 792 787 812 824 830 832 835 836 836 835
852 848 842 842 841 837 832 832 842 834 837 836 836 832 830 827 827 826 823 823 826 826 825 828 825 824 813 816 819 816 814 814 815 808 807 808 797 818 825 830 833 835 841 845 848
851 848 843 842 838 833 837 838 839 837 836 834 831 831 830 831 832 824 823 827 828 829 829 827 825 825 813 820 821 818 813 816 815 818 811 804 796 821 827 831 836 840 843 846 850
851 846 843 842 844 839 833 833 836 836 834 834 832 833 832 831 829 827 828 829 831 831 838 835 826 822 814 805 813 815 812 818 817 819 804 795 796 821 827 833 839 844 848 848 849
851 844 841 831 831 837 841 837 836 834 835 833 831 829 828 829 831 829 825 827 832 836 836 832 826 821 817 813 813 813 812 812 813 816 813 795 802 803 823 838 844 848 851 850 850
849 847 847 845 844 843 842 835 832 829 830 828 829 823 825 829 824 826 829 827 827 832 833 835 827 826 827 814 813 813 809 806 806 806 805 804 802 827 838 843 848 851 853 853 853
843 842 839 843 844 842 837 832 827 828 826 823 824 824 827 824 825 828 827 827 827 830 831 834 830 826 817 817 815 808 801 796 804 820 815 810 829 841 844 849 853 856 858 857 857
Wind_Speed
11 11 11 12 12 12 12 12 12 12 11 11 11 12 12 8 3 3 4 3 3 7 9 10 5 4 3 1 4 3 4 5 6 8 9 12 13 13 13 16 17 16 17 17 23
12 12 13 13 13 14 14 14 13 12 12 11 11 11 12 8 4 5 4 4 5 7 8 9 10 11 2 3 1 4 5 7 7 11 13 15 16 17 17 19 19 19 17 20 23
14 15 16 16 16 16 15 15 13 12 13 12 11 10 10 4 5 2 2 3 5 6 6 7 8 6 7 3 4 3 7 11 14 12 13 15 17 17 17 21 20 18 16 14 16
16 17 18 18 18 18 19 17 15 15 15 13 10 9 8 2 4 3 3 4 7 5 5 8 8 8 6 9 5 6 10 9 13 15 16 17 18 16 17 21 20 17 14 14 16
17 19 20 20 20 21 20 16 15 17 18 15 9 6 3 5 2 1 3 6 5 2 6 7 7 8 10 12 11 7 12 15 15 14 12 13 15 15 17 14 14 13 15 17 17
18 19 20 21 22 24 20 19 20 18 15 9 5 3 3 4 3 3 4 5 3 4 5 6 6 8 9 13 7 14 15 14 7 8 11 11 18 10 11 13 10 9 15 15 17
18 20 22 24 25 24 22 24 23 9 7 4 5 4 5 3 1 2 4 4 1 3 6 4 5 6 11 11 9 10 10 8 5 12 8 15 5 14 20 15 13 18 10 9 9
21 22 23 24 25 22 23 26 9 5 4 2 5 2 3 2 0 3 2 2 3 1 2 3 3 6 4 11 9 6 3 11 12 11 9 8 10 18 20 20 17 11 1 7 9
21 23 25 26 25 20 23 17 6 5 4 5 2 3 2 1 1 4 4 4 1 1 1 0 3 4 7 12 8 9 11 13 8 14 11 6 11 19 20 19 21 19 7 9 9
22 24 26 28 25 22 22 6 5 4 3 1 1 4 1 4 5 3 3 2 3 2 3 2 2 5 11 10 10 13 12 12 10 9 11 14 13 15 18 17 15 17 17 9 9
22 24 26 27 21 22 18 6 4 3 5 4 7 4 2 8 2 1 4 3 2 5 5 2 4 8 13 10 9 10 11 8 7 4 12 11 14 17 18 20 19 20 19 19 14
22 24 26 28 15 19 14 6 4 4 6 1 3 4 2 4 2 3 8 5 3 4 4 4 7 8 9 4 13 5 12 7 6 4 4 10 15 15 20 17 20 22 22 19 23
22 24 26 26 9 13 14 8 5 3 5 1 2 2 2 4 2 5 9 3 4 4 7 4 5 8 7 8 14 3 9 9 6 5 7 9 12 18 17 21 19 17 21 24 24
21 24 25 21 4 8 4 9 5 2 3 3 2 2 2 4 2 3 5 3 2 4 5 2 4 6 12 9 11 6 12 7 9 10 2 9 5 17 17 18 20 20 20 22 24
20 22 23 15 8 4 8 9 2 2 0 3 2 1 2 3 5 2 2 3 4 5 4 4 5 7 12 7 8 5 11 7 7 6 6 10 5 11 15 18 19 20 19 19 19
20 21 19 10 4 8 11 5 1 2 2 3 2 4 4 2 2 5 1 1 2 2 2 3 1 3 6 11 3 12 5 7 7 7 3 6 6 7 10 13 16 18 19 19 19
19 21 15 9 5 12 8 3 3 3 1 4 4 6 5 4 1 5 4 6 5 3 6 7 1 2 5 10 4 14 1 3 3 2 4 3 4 4 10 12 14 15 17 18 18
18 20 14 7 11 11 3 3 2 2 3 1 3 8 4 6 2 3 2 1 5 6 4 5 3 5 7 3 6 7 4 2 4 4 5 1 4 4 10 11 12 15 16 17 20
17 11 5 7 9 8 4 2 3 2 2 7 10 5 1 0 4 4 3 2 3 6 6 5 3 1 2 2 4 4 3 1 4 2 5 2 4 8 9 11 12 13 14 16 17
11 7 4 6 6 3 3 3 2 1 2 2 4 2 5 7 6 3 1 3 2 2 3 3 6 3 1 2 1 5 3 3 2 3 3 3 5 1 5 8 10 11 13 15 15
5 4 2 6 5 3 2 2 3 2 3 3 3 5 6 7 3 5 1 3 1 2 2 3 2 1 3 2 2 3 1 0 3 3 3 4 3 3 5 5 7 10 13 16 17
2 3 2 4 3 2 3 2 1 3 3 4 3 5 6 4 6 4 3 2 2 1 3 2 4 5 8 2 2 3 3 4 3 2 3 5 2 4 5 5 3 6 7 8 10
2 3 3 1 4 4 1 2 3 3 4 3 3 5 1 3 4 4 3 2 2 2 2 1 3 5 4 4 3 5 5 5 5 3 10 5 2 4 4 3 6 6 7 7 8
1 2 2 1 1 4 6 4 4 3 4 4 3 3 3 5 7 4 3 2 3 2 2 2 6 11 9 8 3 8 8 8 9 6 7 10 4 10 6 2 4 6 7 9 10
0 3 4 2 4 6 2 2 6 5 5 4 4 10 6 5 4 6 6 4 5 2 3 4 7 10 13 16 14 15 16 15 15 15 9 2 6 5 5 1 3 4 7 9 11
4 2 1 2 1 4 6 5 9 6 5 6 10 5 9 8 8 4 3 3 6 4 3 2 5 4 7 16 16 16 15 14 15 16 18 18 15 5 5 1 3 4 7 9 11
4 0 2 1 2 4 4 5 8 3 8 7 6 6 8 10 6 5 6 8 8 4 6 4 4 4 5 1 8 13 11 13 6 3 6 11 5 4 3 3 6 5 7 9 11
Wind_Direction
26 21 11 9 0 355 350 342 338 335 334 337 342 343 341 336 305 318 355 345 322 328 337 322 312 357 286 348 327 308 266 308 335 304 313 313 295 291 281 277 285 282 268 285 292
22 15 10 4 357 353 345 337 332 328 325 322 324 332 340 335 295 295 307 300 317 326 332 344 347 340 287 312 270 284 295 333 324 305 302 307 301 299 292 279 273 274 267 260 268
15 9 4 359 353 349 344 338 329 329 325 315 311 317 337 335 267 31 310 318 312 310 305 315 310 308 308 280 356 322 292 326 312 315 315 302 296 306 295 278 271 269 269 272 259
14 10 6 2 356 350 339 332 324 325 319 311 303 306 330 282 352 81 300 307 322 295 296 316 313 335 322 335 351 289 305 307 309 308 303 295 305 296 291 288 292 281 268 267 268
12 7 3 359 352 345 340 335 327 319 311 301 282 293 323 238 6 17 309 311 315 296 302 322 316 339 331 337 325 282 311 314 306 309 294 296 293 313 307 313 301 280 272 269 261
8 3 359 354 349 345 341 333 325 317 308 303 240 234 260 267 75 44 329 322 299 290 308 307 328 331 290 318 302 327 314 296 320 310 318 323 301 308 321 331 316 296 267 261 260
4 0 358 354 349 346 340 333 329 326 316 304 189 171 242 334 100 0 354 332 311 304 301 314 309 297 333 317 340 299 303 311 51 7 355 329 12 9 4 341 314 294 284 287 305
0 358 354 352 349 347 341 336 352 357 3 77 146 208 293 188 241 17 356 313 357 46 283 313 301 293 277 295 260 274 249 352 26 8 347 325 341 21 356 352 337 339 244 5 10
359 357 354 350 350 353 343 343 15 29 61 104 112 256 111 41 330 339 360 335 234 155 92 42 302 305 285 330 327 2 334 0 2 29 341 8 5 12 2 7 358 350 3 356 357
359 358 354 350 351 357 346 0 33 56 16 75 231 239 136 16 329 321 343 341 253 220 232 246 247 295 0 358 350 327 330 339 11 10 39 42 33 27 10 8 348 346 345 324 330
358 357 354 350 350 0 4 322 291 174 19 15 329 292 0 338 320 335 345 274 242 243 339 53 343 10 351 344 329 305 301 357 45 350 65 53 49 46 40 33 15 356 358 349 326
355 355 356 351 354 5 29 55 35 325 313 182 302 283 294 335 275 28 342 286 274 336 327 217 36 1 340 330 319 325 314 22 116 344 345 67 61 59 54 53 33 355 351 353 341
352 353 356 353 356 16 57 44 338 323 265 51 13 346 3 320 1 354 349 324 322 323 2 10 14 329 351 358 348 358 350 331 319 299 257 290 58 33 48 32 33 13 354 11 360
350 350 353 358 25 355 49 354 341 315 257 60 74 81 308 317 187 351 1 335 248 332 350 29 338 338 349 16 353 306 352 309 298 285 355 340 358 31 25 27 28 24 12 5 9
343 348 351 3 324 9 321 333 339 244 123 46 76 341 320 333 324 81 356 258 332 335 296 14 344 355 359 2 340 338 331 308 304 298 319 5 328 22 18 13 23 23 24 23 20
338 342 346 354 353 332 335 330 200 248 311 13 322 349 326 38 43 321 304 177 321 276 283 12 28 327 337 317 276 311 294 273 280 288 270 352 337 42 25 2 29 31 28 26 25
332 335 336 341 314 326 334 250 310 344 99 16 340 343 327 339 74 14 9 37 12 335 358 335 98 92 346 328 217 6 254 280 275 283 322 9 300 14 44 38 35 38 33 34 29
329 326 325 317 331 336 294 264 347 57 12 11 291 301 301 350 82 355 311 343 51 348 312 333 313 17 19 36 315 335 358 322 297 304 344 216 340 77 67 62 52 41 40 33 30
330 326 304 311 338 334 285 309 313 21 355 331 308 282 186 183 310 315 19 34 43 8 348 329 318 112 26 336 335 352 16 355 286 251 292 37 115 158 91 58 52 44 41 40 34
329 313 277 320 333 302 277 285 308 356 308 282 301 354 311 342 311 295 222 92 139 351 334 23 291 160 51 237 230 347 337 239 198 278 278 207 285 121 40 36 41 40 32 35 30
327 310 330 333 328 245 266 277 284 232 236 232 285 284 288 313 294 303 323 133 183 170 276 300 240 261 206 200 320 205 338 288 289 281 297 311 156 86 118 78 48 35 28 23 15
331 258 344 355 290 266 243 195 10 232 201 243 280 282 278 303 279 280 290 353 107 280 294 33 307 279 297 40 258 274 305 303 290 168 253 293 294 129 119 100 67 59 48 40 25
163 278 340 86 260 227 144 247 266 244 245 207 229 225 245 266 277 245 246 116 146 232 327 94 233 296 175 172 167 234 222 271 277 294 250 264 98 148 144 86 43 28 17 22 23
189 276 176 174 124 295 267 245 239 202 241 234 271 235 216 248 234 281 262 165 180 234 10 280 254 245 267 319 344 268 244 228 255 260 268 242 243 184 179 188 25 17 8 2 4
310 233 329 226 207 234 301 357 239 232 220 221 223 233 218 265 241 235 250 248 199 191 222 239 255 258 268 282 282 271 265 265 252 240 264 331 322 132 146 348 17 11 4 0 1
158 190 190 360 235 138 163 232 254 238 223 221 233 257 225 238 249 295 264 217 267 163 235 225 277 307 278 261 262 276 265 253 247 254 254 266 271 117 117 94 8 14 1 358 358
214 168 285 168 174 213 210 211 243 212 235 262 231 234 229 245 274 283 281 285 277 258 227 250 275 294 279 74 295 273 272 240 246 330 300 262 49 123 162 9 353 358 357 355 352